Weather in Kusatsu

Japan     36°37′39″N   138°34′06″E
temp.,
°C
wind,
m/s
gust,
m/s
humid.,
%
clouds,
%
prec.,
mm/h
press.,
hPa
HPBL,
m
28 november, sun
sun2800:00−4nw41099100 3.4 10311048
03:00−4nw3899100 5.2 1032642
06:00−4nw249898 1.1 1034302
09:00−3nw249695 2.0 1034549
12:00−2nw249464 0.3 1033640
15:00−2n239148 0.4 1034510
18:00−8e219524 0.0 103817
21:00−9ese21731 0.0 103814
29 november, mon
mon2900:00−9se22670 0.0 103716
03:00−8se32662 0.0 103518
06:00−7se2274100 0.0 103418
09:000ssw1282100 0.0 103178
12:00+2sw1294100 0.0 1028143
15:00+1ssw119825 0.0 102850
18:00−4se227175 0.0 103214
21:00−3se2272100 0.0 103116
30 november, tue
tue3000:00−3se2275100 0.0 103016
03:00−3se327470 0.0 102915
06:00−4se32740 0.0 102822
09:00+2sse23865 0.0 102482
12:00+3sse3592100 0.0 1021223
15:00+2sse4688100 0.0 1018129
18:00−1se577997 0.0 1018110
21:00+1se6792100 0.0 1016194
1 december, wed
wed100:00+2se61395100 0.0 1010497
03:00+3se5998100 0.7 1005231
06:00+3ese11100100 10.8 100322
09:00+3wsw12100100 19.6 1002207
12:00+2nw2210097 0.3 1001155
15:000wnw259355 0.9 1003596
18:00−3nnw239999 0.2 1008180
21:00−5w239896 0.4 101192
2 december, thu
thu200:00−4w289866 1.3 1012941
03:00−6nw259889 1.8 1015247
06:00−8se11939 0.1 101913
09:00−3w12772 0.1 1018289
12:000w22742 0.0 1016466
15:00+1sw12792 0.0 1016292
18:00−5se33873 0.0 102042
21:00−4se329127 0.0 102037